Location: Baumgartsau
(48.4586°N, 14.0864°E)
Time: 12:24:25
(UTC+00:00)

BREEZE M DEB (TANK) - Pass Details

Date: 09 August 2020
Orbit: 304 x 11869 km, 49.5° (Epoch: 20 September)

Event Time Altitude Azimuth Distance (km) Brightness Sun altitude
Exits shadow 00:20:33 21° 178° (S) 9,354 7.9 -23.8°
Maximum altitude 00:38:34 33° 140° (SE) 5,074 6.9 -22.8°
Drops below altitude 10° 00:49:26 10° 82° (E) 4,194 7.2 -22.0°
Sets 00:51:53 0° 71° (ENE) 4,559 7.7 -21.8°
